• Join FlightAware (Why Join?)
  • Login
  • US Flag GB Flag 
02:45 EDT


 

Airport Tracker/Info


-or-


 

Live Flight TrackerFlight Track Log ✈ N27XP ✈ 18-Jun-2013 ✈ KSOP - KRDU

Flight Track Log - Related Links

Times and Time Zones

All times are in EDT time to prevent confusion due to time zone crossing. See the N27XP flight status page for this flight to view local times or setup timezone preferences in your user account.

Time Position Orientation Groundspeed Altitude Reporting Facility
EDT Latitude Longitude Course Direction KTS MPH feet Rate Location/Type
07:25 35.2331 -79.3581 36° Northeast 230 265 3,800  Level Washington Center
07:26 35.3361 -79.2661 36° Northeast 306 352 5,000 420 Climbing Washington Center
07:27 35.4025 -79.2081 35° Northeast 296 341 5,000  Level Washington Center
07:28 35.4644 -79.1547 35° Northeast 295 339 5,000  Level Washington Center
07:29 35.4290 -79.1957 36° Northeast  Level FlightAware Approximate
07:29 35.5417 -79.0842 37° Northeast 297 342 5,000  Level Washington Center
07:30 35.4690 -79.1596 36° Northeast  Level FlightAware Approximate
07:30 35.6061 -79.0206 39° Northeast 297 342 5,000  Level Washington Center
07:31 35.6372 -78.9553 60° Northeast 294 338 5,000 -240 Level Washington Center
07:32 35.6647 -78.8644 70° East 287 330 4,600 -600 Descending Washington Center
07:33 35.6978 -78.7994 58° Northeast 264 304 4,000 -360 Descending Washington Center
07:34 35.7475 -78.7425 43° Northeast 244 281 4,000  Level Washington Center
07:35 35.8056 -78.6756 43° Northeast 243 280 4,000  Level Washington Center
07:36 35.8550 -78.6133 46° Northeast 239 275 4,000 -240 Level Washington Center
07:37 35.9103 -78.5772 28° Northeast 234 269 3,500 -960 Descending Washington Center
07:38 35.9831 -78.5797 358° North 222 255 2,000 -720 Descending Washington Center
07:39 35.9947 -78.6214 289° West 141 162 2,000  Level Washington Center
07:40 35.9792 -78.6567 241° Southwest 139 160 2,000  Level Washington Center
07:41 35.9511 -78.6889 223° Southwest 153 176 2,000 -180 Level Washington Center
07:42 35.9253 -78.7264 230° Southwest 129 148 1,700 -480 Descending Washington Center
07:43 35.9036 -78.7514 223° Southwest 105 121 1,100 -600 Descending Washington Center